Flag for U.S.A. Weather past 2 weeks in Washington DC, District of Columbia, U.S.A.

Now
19 °F

Sunny.


Feels Like: 7 °F
Forecast: 11 / 28 °F
Wind: 12 mph from North

Location: Reagan National Airport

Current Time: Mar 6, 2015 at 10:05:28 AM

Latest Report: Mar 6, 2015 at 8:52 AM


Visibility: 10 mi

Pressure: 30.63 "Hg

Humidity: 47%

Dew point: 2 °F

Location of Washington DCLocation

Historic Weather in Washington DC — Graph

°F

Washington DC temperature yesterday

Maximum temperature yesterday: 45 °F (at 1:04 AM)
Minimum temperature yesterday: 23 °F (at 11:52 PM)
Average temperature yesterday: 33 °F

Past Weeks' High & Low Weather Summary

 TemperatureHumidityPressure
High51 °F (Mar 4, 3:52 PM)93% (Mar 4, 6:01 PM)30.88 "Hg (Mar 4, 6:01 PM)
Low6 °F (Feb 20, 5:52 AM)23% (Feb 20, 4:52 PM)29.81 "Hg (Feb 25, 2:52 AM)
Average30 °F58%30.26 "Hg
* Reported Feb 19 8:52 AM — Mar 6 8:52 AM, Washington DC, Weather by CustomWeather, © 2015

Note: Actual official high and low records may vary slightly from our data, if they occured in-between our weather recording intervals... More about our weather records

Advertising

Washington DC weather history for previous 24 hours

 ConditionsComfort  
Time TempWeatherWind HumidityBarometerVisibility
8:52 AM
Fri, Mar 6
19 °FSunny.12 mph47%30.63 "Hg10 mi
7:52 AM17 °FSunny.12 mph51%30.61 "Hg10 mi
6:52 AM16 °FSunny.9 mph51%30.58 "Hg10 mi
5:52 AM16 °FClear.13 mph51%30.57 "Hg10 mi
4:52 AM17 °FClear.12 mph51%30.54 "Hg10 mi
3:52 AM18 °FClear.15 mph49%30.50 "Hg10 mi
2:52 AM19 °FClear.14 mph52%30.49 "Hg10 mi
1:52 AM20 °FClear.13 mph52%30.49 "Hg10 mi
12:52 AM21 °FClear.13 mph55%30.46 "Hg10 mi
11:52 PM
Thu, Mar 5
23 °FPassing clouds.14 mph55%30.45 "Hg10 mi
10:52 PM26 °FPassing clouds.13 mph57%30.45 "Hg10 mi
9:52 PM26 °FOvercast.15 mph57%30.43 "Hg10 mi
8:52 PM27 °FLight snow. Mostly cloudy.15 mph63%30.40 "Hg9 mi
7:52 PM27 °FLight snow. Mostly cloudy.15 mph69%30.36 "Hg9 mi
6:52 PM27 °FLight snow. Overcast.16 mph75%30.32 "Hg3 mi
5:52 PM28 °FLight snow. More clouds than sun.16 mph75%30.28 "Hg2 mi
4:52 PM29 °FLight snow. Cloudy.13 mph82%30.24 "Hg1 mi
3:52 PM30 °FSnow. Ice fog.10 mph85%30.21 "Hg1 mi
2:52 PM31 °FHeavy snow. Ice fog.13 mph82%30.19 "Hg0 mi
2:04 PM30 °FHeavy snow. Ice fog.14 mph86%30.19 "Hg0 mi
1:52 PM31 °FSnow. Ice fog.9 mph85%30.20 "Hg1 mi
12:57 PM32 °FLight snow. Cloudy.15 mph80%30.18 "Hg1 mi
11:52 AM32 °FHeavy snow. Ice fog.16 mph82%30.17 "Hg0 mi
10:59 AM34 °FLight snow. Mostly cloudy.15 mph81%30.18 "Hg1 mi
Weather by CustomWeather, © 2015

See weather overviewHow to use our weather pages